User: anonymous   Login
Location: Unspecified
(0.0000°N, 0.0000°E)
Time: 07:20:11
(UTC+00:00)
Language:

NOSS 3-4 (A) - Orbit

View from above orbital plane
View from above orbital plane
View from above satellite
View from above satellite

Ground track
Ground track

The orbit data is extracted from the following two-line orbital elements,

1 31701U 07027A   18158.04633731 0.00000000  00000-0  00000-0 0    01
2 31701  63.4031 258.5994 0222000  21.7166 338.2834 13.40752149    09
Epoch (UTC): 07 June 2018 01:06:43
Eccentricity: 0.0222000
inclination: 63.4031°
perigee height: 940 km
apogee height: 1272 km
right ascension of ascending node: 258.5994°
argument of perigee: 21.7166°
revolutions per day: 13.40752149
mean anomaly at epoch: 338.2834°
orbit number at epoch: 0

The dashed part of the orbit path shows where the satellite is in the earth's shadow,  

DLR